EN

Hourly Weather Almachar

Today, 25 January, Monday

Time Temperature Precipitation Wind Pressure Humidity
00:00 +11°C° 0 mm 3 mps 737 mmHg 87%
01:00 +11°C° 0 mm 3 mps 737 mmHg 86%
02:00 +11°C° 0 mm 3 mps 737 mmHg 86%
03:00 +11°C° 0 mm 3 mps 737 mmHg 85%
04:00 +11°C° 0 mm 3 mps 737 mmHg 85%
05:00 +11°C° 0 mm 3 mps 737 mmHg 85%
06:00 +11°C° 0 mm 3 mps 737 mmHg 85%
07:00 +11°C° 0 mm 3 mps 738 mmHg 80%
08:00 +11°C° 0 mm 3 mps 738 mmHg 78%
09:00 +12°C° 0 mm 3 mps 739 mmHg 75%
10:00 +13°C° 0 mm 3 mps 739 mmHg 70%
11:00 +14°C° 0 mm 3 mps 739 mmHg 65%
12:00 +17°C° 0 mm 3 mps 739 mmHg 61%
13:00 +17°C° 0 mm 3 mps 739 mmHg 61%
14:00 +17°C° 0 mm 3 mps 739 mmHg 62%
15:00 +17°C° 0 mm 4 mps 739 mmHg 63%
16:00 +16°C° 0 mm 3 mps 739 mmHg 69%
17:00 +14°C° 0 mm 3 mps 739 mmHg 75%
18:00 +13°C° 0 mm 3 mps 739 mmHg 80%
19:00 +14°C° 0 mm 2 mps 740 mmHg 81%
20:00 +14°C° 0 mm 2 mps 740 mmHg 82%
21:00 +13°C° 0 mm 2 mps 741 mmHg 83%
22:00 +13°C° 0 mm 2 mps 741 mmHg 83%
23:00 +13°C° 0 mm 2 mps 741 mmHg 84%

Tomorrow, 26 January, Tuesday

Time Temperature Precipitation Wind Pressure Humidity
00:00 +13°C° 0 mm 1 mps 741 mmHg 84%
01:00 +13°C° 0 mm 1 mps 741 mmHg 85%
02:00 +13°C° 0 mm 2 mps 741 mmHg 86%
03:00 +13°C° 0 mm 2 mps 741 mmHg 87%
04:00 +13°C° 0 mm 2 mps 741 mmHg 87%
05:00 +13°C° 0 mm 2 mps 741 mmHg 88%
06:00 +13°C° 0 mm 2 mps 741 mmHg 89%
07:00 +14°C° 0 mm 2 mps 742 mmHg 87%
08:00 +14°C° 0 mm 2 mps 742 mmHg 86%
09:00 +15°C° 0 mm 2 mps 742 mmHg 84%
10:00 +16°C° 0 mm 3 mps 743 mmHg 79%
11:00 +17°C° 0 mm 3 mps 743 mmHg 74%
12:00 +18°C° 0 mm 4 mps 743 mmHg 69%
13:00 +18°C° 0 mm 4 mps 743 mmHg 68%
14:00 +19°C° 0 mm 4 mps 742 mmHg 67%
15:00 +19°C° 0 mm 4 mps 742 mmHg 65%
16:00 +18°C° 0 mm 4 mps 742 mmHg 70%
17:00 +17°C° 0 mm 4 mps 742 mmHg 75%
18:00 +14°C° 0 mm 4 mps 742 mmHg 80%
19:00 +14°C° 0 mm 4 mps 743 mmHg 82%
20:00 +14°C° 0 mm 4 mps 743 mmHg 83%
21:00 +13°C° 0 mm 4 mps 743 mmHg 84%
22:00 +13°C° 0 mm 3 mps 743 mmHg 85%
23:00 +13°C° 0 mm 3 mps 743 mmHg 85%

Day after tomorrow, 27 January, Wednesday

Time Temperature Precipitation Wind Pressure Humidity
00:00 +13°C° 0 mm 3 mps 743 mmHg 85%
01:00 +13°C° 0 mm 3 mps 743 mmHg 85%
02:00 +13°C° 0 mm 3 mps 742 mmHg 85%
03:00 +13°C° 0 mm 3 mps 742 mmHg 85%
04:00 +12°C° 0 mm 3 mps 742 mmHg 86%
05:00 +12°C° 0 mm 3 mps 742 mmHg 86%
06:00 +13°C° 0 mm 2 mps 742 mmHg 86%
07:00 +14°C° 0 mm 2 mps 742 mmHg 84%
08:00 +15°C° 0 mm 2 mps 743 mmHg 82%
09:00 +16°C° 0 mm 1 mps 743 mmHg 80%
10:00 +18°C° 0 mm 1 mps 743 mmHg 75%
11:00 +19°C° 0 mm 1 mps 743 mmHg 71%
12:00 +20°C° 0 mm 1 mps 743 mmHg 66%
13:00 +21°C° 0 mm 1 mps 742 mmHg 67%
14:00 +20°C° 0 mm 2 mps 742 mmHg 67%
15:00 +20°C° 0 mm 2 mps 742 mmHg 67%
16:00 +19°C° 0 mm 2 mps 742 mmHg 73%
17:00 +17°C° 0 mm 2 mps 742 mmHg 79%
18:00 +16°C° 0 mm 2 mps 742 mmHg 85%
19:00 +16°C° 0 mm 2 mps 742 mmHg 86%
20:00 +16°C° 0 mm 2 mps 742 mmHg 86%
21:00 +15°C° 0 mm 2 mps 743 mmHg 86%
22:00 +15°C° 0 mm 2 mps 743 mmHg 87%
23:00 +15°C° 0 mm 2 mps 743 mmHg 87%

28 January, Thursday

Time Temperature Precipitation Wind Pressure Humidity
00:00 +15°C° 0 mm 2 mps 743 mmHg 88%
01:00 +15°C° 0 mm 2 mps 743 mmHg 88%
02:00 +14°C° 0 mm 2 mps 743 mmHg 88%
03:00 +14°C° 0 mm 2 mps 743 mmHg 88%
04:00 +14°C° 0 mm 2 mps 743 mmHg 87%
05:00 +14°C° 0 mm 2 mps 743 mmHg 86%
06:00 +14°C° 0 mm 2 mps 742 mmHg 85%
07:00 +15°C° 0 mm 2 mps 743 mmHg 82%
08:00 +16°C° 0 mm 2 mps 743 mmHg 78%
09:00 +18°C° 0 mm 1 mps 744 mmHg 74%
10:00 +19°C° 0 mm 1 mps 744 mmHg 68%
11:00 +20°C° 0 mm 1 mps 744 mmHg 63%
12:00 +22°C° 0 mm 1 mps 744 mmHg 58%
13:00 +22°C° 0 mm 1 mps 743 mmHg 58%
14:00 +21°C° 0 mm 2 mps 743 mmHg 58%
15:00 +21°C° 0 mm 2 mps 742 mmHg 57%
16:00 +20°C° 0 mm 2 mps 742 mmHg 64%
17:00 +18°C° 0 mm 2 mps 742 mmHg 70%
18:00 +18°C° 0 mm 1 mps 742 mmHg 77%

29 January, Friday

Time Temperature Precipitation Wind Pressure Humidity

30 January, Saturday

Time Temperature Precipitation Wind Pressure Humidity
Show more